CW0927 Weather Reports


Display with metric or nautical units.
time (UTC)temp
F
wind
direction
speed
MPH
gust
MPH
rain 1hr
in
rain 24hr
in
rain mn
in
humidity
%
barometer
mb
20260905181325 94 240 2.0 8.0 0.00 0.55 0.02 66 1014.5
20260905180824 93 186 1.0 10.0 0.00 0.55 0.02 66 1014.5
20260905180325 93 258 4.0 10.0 0.00 0.55 0.02 64 1014.4
20260905175821 93 184 1.0 11.0 0.00 0.55 0.02 67 1014.4
20260905175323 93 256 3.0 7.0 0.00 0.55 0.02 66 1014.6
20260905174823 93 251 2.0 9.0 0.00 0.55 0.02 64 1014.7
20260905174324 93 247 2.0 7.0 0.00 0.55 0.02 67 1014.8
20260905173822 93 287 2.0 6.0 0.00 0.55 0.02 67 1014.9
20260905173350 92 263 2.0 8.0 0.00 0.55 0.02 68 1015.1
20260905172827 92 243 2.0 8.0 0.00 0.55 0.02 67 1015.1
20260905172356 92 189 2.0 6.0 0.00 0.55 0.02 69 1015.2
20260905171837 92 242 1.0 5.0 0.00 0.55 0.02 71 1015.3
20260905171408 91 270 2.0 8.0 0.00 0.55 0.02 71 1015.4
20260905170848 91 261 3.0 8.0 0.00 0.55 0.02 71 1015.4
20260905170330 91 24 0.0 5.0 0.00 0.55 0.02 74 1015.5
20260905165830 91 268 2.0 6.0 0.00 0.55 0.02 72 1015.6
20260905165334 91 161 1.0 6.0 0.00 0.55 0.02 72 1015.6
20260905164902 90 256 2.0 4.0 0.00 0.55 0.02 73 1015.9
20260905164324 90 251 2.0 5.0 0.00 0.55 0.02 74 1016.0
20260905163854 90 306 1.0 4.0 0.00 0.55 0.02 75 1016.1
20260905163336 89 59 2.0 7.0 0.00 0.55 0.02 73 1016.1
20260905162835 89 248 3.0 7.0 0.00 0.55 0.02 74 1016.3
20260905162406 89 245 2.0 5.0 0.00 0.55 0.02 75 1016.4
20260905161849 89 281 2.0 4.0 0.00 0.55 0.02 74 1016.4
20260905161349 89 248 0.0 3.0 0.00 0.55 0.02 77 1016.4
20260905160849 88 273 1.0 5.0 0.00 0.55 0.02 78 1016.5
20260905160349 88 241 2.0 7.0 0.00 0.55 0.02 78 1016.6
20260905155848 87 252 1.0 5.0 0.00 0.55 0.02 79 1016.5
20260905155347 87 254 1.0 4.0 0.00 0.55 0.02 78 1016.5
20260905154846 87 263 2.0 4.0 0.00 0.55 0.02 78 1016.5
20260905154326 87 309 1.0 4.0 0.00 0.55 0.02 80 1016.5
20260905153825 87 261 1.0 3.0 0.00 0.55 0.02 81 1016.6
20260905153327 86 209 0.0 5.0 0.00 0.55 0.02 81 1016.6
20260905152825 86 258 2.0 8.0 0.00 0.55 0.02 81 1016.6
20260905152328 86 265 3.0 8.0 0.00 0.55 0.02 83 1016.8
20260905151828 86 289 1.0 6.0 0.00 0.55 0.02 84 1016.9
20260905151327 85 255 2.0 6.0 0.00 0.55 0.02 83 1017.0
20260905150829 85 280 1.0 4.0 0.00 0.55 0.02 85 1016.9
20260905150359 85 251 1.0 4.0 0.00 0.55 0.02 85 1016.9
20260905145840 85 242 2.0 4.0 0.00 0.55 0.02 85 1016.8
20260905145322 85 261 1.0 4.0 0.00 0.55 0.02 85 1016.8
20260905144848 85 242 1.0 4.0 0.00 0.55 0.02 86 1016.7
20260905144349 84 261 1.0 5.0 0.00 0.55 0.02 86 1016.7
20260905143830 84 246 2.0 5.0 0.00 0.55 0.02 86 1016.6
20260905143402 84 247 1.0 4.0 0.00 0.55 0.02 88 1016.6
20260905142839 84 256 1.0 6.0 0.00 0.55 0.02 89 1016.6
20260905142340 83 250 1.0 6.0 0.00 0.55 0.02 88 1016.6
20260905141842 83 252 3.0 6.0 0.00 0.55 0.02 89 1016.6
20260905141345 83 223 1.0 6.0 0.00 0.55 0.02 90 1016.5
20260905140826 82 238 1.0 6.0 0.00 0.55 0.02 91 1016.6
20260905140326 82 295 1.0 3.0 0.00 0.55 0.02 92 1016.6
20260905135847 82 250 1.0 4.0 0.00 0.55 0.02 93 1016.7
20260905135325 81 250 1.0 4.0 0.00 0.55 0.02 94 1016.6
20260905134825 81 265 1.0 7.0 0.00 0.55 0.02 95 1016.6
20260905134324 80 253 2.0 7.0 0.00 0.55 0.02 96 1016.5
20260905133824 80 259 1.0 4.0 0.00 0.55 0.02 97 1016.5
20260905133325 79 263 1.0 4.0 0.00 0.55 0.02 97 1016.6
20260905132850 79 219 1.0 3.0 0.00 0.55 0.02 97 1016.7
20260905132350 78 238 1.0 2.0 0.00 0.55 0.02 97 1016.6
20260905131829 78 71 0.0 2.0 0.00 0.55 0.02 97 1016.7
20260905131329 78 71 0.0 1.0 0.00 0.55 0.02 97 1016.6
20260905130830 77 71 0.0 1.0 0.00 0.55 0.02 97 1016.5
20260905130328 77 71 0.0 1.0 0.00 0.55 0.02 97 1016.5
20260905125858 77 71 0.0 0.0 0.00 0.55 0.02 97 1016.5
20260905125339 77 71 0.0 0.0 0.00 0.55 0.02 97 1016.5
20260905124842 77 71 0.0 1.0 0.00 0.55 0.02 97 1016.5
20260905124346 77 71 0.0 1.0 0.00 0.55 0.02 97 1016.5
20260905123849 76 71 0.0 0.0 0.00 0.55 0.02 97 1016.4
20260905123333 76 71 0.0 0.0 0.00 0.55 0.02 97 1016.5
20260905122840 76 71 0.0 0.0 0.00 0.55 0.02 97 1016.5
20260905122324 76 71 0.0 0.0 0.00 0.55 0.02 97 1016.6
20260905121828 76 71 0.0 0.0 0.00 0.55 0.02 97 1016.5
20260905121338 76 71 0.0 0.0 0.00 0.55 0.02 97 1016.5
20260905120838 76 71 0.0 0.0 0.00 0.55 0.02 97 1016.4
20260905120343 75 71 0.0 0.0 0.00 0.55 0.02 96 1016.2
20260905115846 75 71 0.0 0.0 0.00 0.55 0.02 96 1016.2
20260905115331 75 71 0.0 0.0 0.00 0.55 0.02 96 1016.2
20260905114834 75 71 0.0 0.0 0.00 0.55 0.02 96 1016.2
20260905114334 75 71 0.0 0.0 0.00 0.55 0.02 96 1016.2
20260905113833 75 71 0.0 0.0 0.00 0.55 0.02 96 1016.1
20260905113403 75 71 0.0 0.0 0.00 0.55 0.02 96 1016.0
20260905112840 75 71 0.0 0.0 0.00 0.55 0.02 96 1016.0
20260905112340 75 71 0.0 0.0 0.01 0.55 0.02 96 1016.0
20260905111840 75 71 0.0 0.0 0.01 0.55 0.02 96 1015.9
20260905111343 75 71 0.0 0.0 0.01 0.55 0.02 96 1015.9
20260905110843 75 71 0.0 0.0 0.01 0.55 0.02 96 1016.0
20260905110347 75 71 0.0 0.0 0.01 0.55 0.02 96 1015.9
20260905105845 75 71 0.0 0.0 0.01 0.55 0.02 96 1015.8
20260905105347 75 71 0.0 0.0 0.01 0.55 0.02 96 1015.6
20260905104827 75 71 0.0 0.0 0.01 0.55 0.02 96 1015.5
20260905104330 75 71 0.0 0.0 0.01 0.55 0.02 96 1015.5
20260905103902 75 71 0.0 0.0 0.01 0.55 0.02 96 1015.4
20260905103345 75 71 0.0 0.0 0.01 0.55 0.02 96 1015.5
20260905102825 75 71 0.0 0.0 0.01 0.55 0.02 95 1015.5
20260905102327 75 71 0.0 0.0 0.00 0.54 0.01 95 1015.4
20260905101830 75 71 0.0 0.0 0.00 0.54 0.01 95 1015.4
20260905101334 75 71 0.0 0.0 0.00 0.54 0.01 96 1015.5
20260905100834 75 71 0.0 0.0 0.00 0.54 0.01 96 1015.5
20260905100338 75 71 0.0 0.0 0.00 0.54 0.01 96 1015.5
20260905095839 75 71 0.0 0.0 0.00 0.54 0.01 96 1015.4
20260905095343 75 71 0.0 0.0 0.00 0.54 0.01 96 1015.3
20260905094825 75 71 0.0 0.0 0.00 0.54 0.01 96 1015.4
20260905094329 75 71 0.0 0.0 0.00 0.54 0.01 96 1015.5
20260905093833 75 71 0.0 0.0 0.00 0.54 0.01 96 1015.5
20260905093337 75 71 0.0 0.0 0.00 0.54 0.01 96 1015.6
20260905092909 75 71 0.0 0.0 0.00 0.54 0.01 96 1015.5
20260905092329 75 71 0.0 0.0 0.00 0.54 0.01 96 1015.4
20260905091833 76 71 0.0 0.0 0.00 0.54 0.01 96 1015.4
20260905091337 76 71 0.0 0.0 0.00 0.54 0.01 96 1015.5
20260905090837 76 71 0.0 0.0 0.00 0.54 0.01 96 1015.6
20260905090342 76 71 0.0 0.0 0.00 0.54 0.01 96 1015.6
20260905085824 76 71 0.0 0.0 0.00 0.54 0.01 96 1015.6
20260905085326 76 71 0.0 0.0 0.00 0.54 0.01 96 1015.6
20260905084836 76 71 0.0 0.0 0.00 0.54 0.01 96 1015.5
20260905084340 76 71 0.0 0.0 0.01 0.54 0.01 96 1015.5
20260905083824 76 71 0.0 0.0 0.01 0.54 0.01 96 1015.5
20260905083328 76 71 0.0 0.0 0.01 0.54 0.01 96 1015.6
20260905082858 76 71 0.0 0.0 0.01 0.54 0.01 96 1015.5
20260905082340 76 71 0.0 0.0 0.01 0.54 0.01 96 1015.5
20260905081822 76 71 0.0 0.0 0.01 0.54 0.01 96 1015.5
20260905081325 76 71 0.0 0.0 0.01 0.54 0.01 96 1015.5
20260905080829 76 71 0.0 0.0 0.01 0.54 0.01 96 1015.5
20260905080329 76 71 0.0 0.0 0.01 0.54 0.01 96 1015.4
20260905075859 76 71 0.0 0.0 0.01 0.54 0.01 96 1015.4
20260905075342 76 71 0.0 0.0 0.01 0.54 0.01 96 1015.3
20260905074845 76 71 0.0 0.0 0.01 0.54 0.01 95 1015.3
20260905074344 76 71 0.0 0.0 0.00 0.53 0.00 95 1015.4
20260905073843 76 71 0.0 0.0 0.00 0.53 0.00 95 1015.2
20260905073343 76 71 0.0 0.0 0.00 0.53 0.00 95 1015.2
20260905072841 76 71 0.0 0.0 0.00 0.53 0.00 95 1015.3
20260905072340 76 71 0.0 0.0 0.00 0.53 0.00 96 1015.3
20260905071840 76 71 0.0 0.0 0.00 0.53 0.00 95 1015.4
20260905071340 76 71 0.0 0.0 0.00 0.53 0.00 95 1015.4
20260905070840 76 71 0.0 0.0 0.00 0.53 0.00 95 1015.4
20260905070339 77 71 0.0 0.0 0.00 0.53 0.00 95 1015.5
20260905065908 77 71 0.0 0.0 0.00 0.53 0.00 95 1015.5
20260905065349 77 71 0.0 0.0 0.00 0.53 0.00 95 1015.5
20260905064830 77 71 0.0 0.0 0.00 0.53 0.00 95 1015.6
20260905064331 77 71 0.0 1.0 0.00 0.53 0.00 95 1015.7
20260905063839 77 65 0.0 1.0 0.00 0.53 0.00 95 1015.8
20260905063341 77 111 0.0 0.0 0.00 0.53 0.00 95 1015.9
20260905062841 77 111 0.0 0.0 0.00 0.53 0.00 95 1015.9
20260905062325 77 111 0.0 0.0 0.00 0.53 0.00 96 1015.9
20260905061827 77 111 0.0 0.0 0.00 0.53 0.00 95 1016.0
20260905061358 77 111 0.0 0.0 0.00 0.53 0.00 95 1016.0
20260905060835 77 111 0.0 0.0 0.00 0.53 0.00 95 1016.0
20260905060339 77 111 0.0 0.0 0.00 0.53 0.00 95 1016.0
20260905055839 77 111 0.0 0.0 0.00 0.53 0.00 95 1016.1
20260905055343 77 111 0.0 0.0 0.00 0.53 0.00 95 1016.1
20260905054846 77 111 0.0 0.0 0.00 0.53 0.00 95 1016.0
20260905054347 77 111 0.0 0.0 0.00 0.53 0.00 95 1016.2
20260905053837 77 111 0.0 0.0 0.00 0.53 0.00 95 1016.3
20260905053342 77 111 0.0 1.0 0.00 0.53 0.00 95 1016.2
20260905052824 77 111 0.0 1.0 0.00 0.53 0.00 95 1016.3
20260905052334 77 111 0.0 1.0 0.00 0.53 0.00 95 1016.4
20260905051836 77 111 0.0 1.0 0.00 0.53 0.00 95 1016.4
20260905051402 77 111 0.0 0.0 0.00 0.53 0.00 95 1016.5
20260905050842 77 111 0.0 0.0 0.00 0.53 0.00 95 1016.5
20260905050343 77 111 0.0 0.0 0.00 0.53 0.00 95 1016.6
20260905045825 77 111 0.0 0.0 0.00 0.53 0.00 95 1016.6
20260905045355 77 111 0.0 0.0 0.00 0.53 0.00 95 1016.7
20260905044837 77 111 0.0 0.0 0.00 0.53 0.00 95 1016.7
20260905044341 77 111 0.0 0.0 0.00 0.53 0.00 95 1016.7
20260905043824 77 111 0.0 0.0 0.00 0.53 0.00 95 1016.7
20260905043356 77 111 0.0 0.0 0.00 0.53 0.00 95 1016.7
20260905042841 77 111 0.0 0.0 0.00 0.53 0.00 95 1016.8
20260905042342 77 111 0.0 0.0 0.00 0.53 0.00 95 1016.9
20260905041823 77 111 0.0 0.0 0.00 0.53 0.00 95 1016.9
20260905041327 77 111 0.0 0.0 0.00 0.53 0.00 95 1017.0
20260905040832 77 111 0.0 0.0 0.00 0.53 0.00 95 1017.1
20260905040335 77 111 0.0 0.0 0.00 0.53 0.00 95 1017.0
20260905035842 78 111 0.0 0.0 0.00 0.53 0.53 95 1017.0
20260905035324 78 111 0.0 0.0 0.00 0.53 0.53 95 1017.1
20260905034826 78 111 0.0 0.0 0.00 0.53 0.53 95 1017.1
20260905034329 78 111 0.0 0.0 0.00 0.53 0.53 95 1017.0
20260905033832 78 111 0.0 0.0 0.00 0.53 0.53 95 1017.1
20260905033336 78 111 0.0 0.0 0.00 0.53 0.53 95 1017.1
20260905032838 78 111 0.0 0.0 0.00 0.53 0.53 95 1017.1
20260905032342 78 111 0.0 0.0 0.00 0.53 0.53 95 1017.1
20260905031846 78 111 0.0 0.0 0.00 0.53 0.53 95 1017.2
20260905031329 78 111 0.0 0.0 0.00 0.53 0.53 95 1017.2
20260905030856 78 111 0.0 0.0 0.00 0.53 0.53 95 1017.2
20260905030339 78 111 0.0 1.0 0.00 0.53 0.53 95 1017.3
20260905025842 78 111 0.0 2.0 0.00 0.53 0.53 95 1017.2
20260905025326 78 133 1.0 2.0 0.00 0.53 0.53 95 1017.3
20260905024830 78 133 0.0 1.0 0.00 0.53 0.53 95 1017.2
20260905024333 78 133 0.0 1.0 0.00 0.53 0.53 95 1017.2
20260905023838 78 133 0.0 1.0 0.00 0.53 0.53 95 1017.4
20260905023341 78 134 0.0 0.0 0.00 0.53 0.53 95 1017.4
20260905022842 78 134 0.0 0.0 0.00 0.53 0.53 95 1017.4
20260905022323 78 134 0.0 0.0 0.00 0.53 0.53 95 1017.3
20260905021823 78 134 0.0 0.0 0.00 0.53 0.53 95 1017.3
20260905021350 78 134 0.0 1.0 0.00 0.53 0.53 95 1017.2
20260905020846 78 134 0.0 1.0 0.00 0.53 0.53 95 1017.2
20260905020347 78 134 0.0 1.0 0.00 0.53 0.53 95 1017.1
20260905015845 78 134 0.0 2.0 0.00 0.53 0.53 94 1017.0
20260905015348 78 134 0.0 2.0 0.00 0.53 0.53 94 1017.0
20260905014825 78 129 1.0 2.0 0.00 0.53 0.53 94 1017.0
20260905014325 78 95 0.0 1.0 0.00 0.53 0.53 94 1017.1
20260905013824 78 95 0.0 1.0 0.00 0.53 0.53 94 1017.1
20260905013327 78 67 0.0 0.0 0.00 0.53 0.53 94 1017.1
20260905012827 78 67 0.0 0.0 0.00 0.53 0.53 94 1017.1
20260905012328 78 67 0.0 0.0 0.00 0.53 0.53 94 1017.0
20260905011837 77 67 0.0 0.0 0.00 0.53 0.53 94 1017.0
20260905011342 78 67 0.0 0.0 0.00 0.53 0.53 94 1016.8
20260905010839 77 67 0.0 0.0 0.00 0.53 0.53 94 1016.7
20260905010340 77 67 0.0 0.0 0.00 0.53 0.53 94 1016.7
20260905005824 78 67 0.0 0.0 0.00 0.53 0.53 94 1016.6
20260905005329 77 67 0.0 0.0 0.00 0.53 0.53 94 1016.5
20260905004833 78 67 0.0 0.0 0.00 0.53 0.53 94 1016.5
20260905004335 78 67 0.0 0.0 0.00 0.53 0.53 94 1016.4
20260905003907 78 67 0.0 0.0 0.00 0.53 0.53 94 1016.4
20260905003348 77 67 0.0 0.0 0.00 0.53 0.53 93 1016.4
20260905002837 77 67 0.0 0.0 0.00 0.53 0.53 93 1016.3
20260905002341 78 67 0.0 0.0 0.00 0.53 0.53 93 1016.3
20260905001824 77 67 0.0 0.0 0.00 0.53 0.53 93 1016.4
20260905001327 77 67 0.0 0.0 0.00 0.53 0.53 93 1016.5
20260905000830 77 67 0.0 0.0 0.00 0.53 0.53 93 1016.7
20260905000333 77 67 0.0 0.0 0.00 0.53 0.53 93 1016.8
20260904235900 77 67 0.0 0.0 0.00 0.53 0.53 93 1016.9
20260904235341 77 67 0.0 0.0 0.00 0.53 0.53 93 1016.8
20260904234824 77 67 0.0 0.0 0.01 0.53 0.53 93 1016.9
20260904234327 77 67 0.0 0.0 0.01 0.53 0.53 93 1016.9
20260904233831 77 67 0.0 0.0 0.01 0.53 0.53 93 1016.8
20260904233336 77 67 0.0 0.0 0.01 0.53 0.53 93 1016.8
20260904232838 77 67 0.0 0.0 0.01 0.53 0.53 93 1016.8
20260904232342 77 67 0.0 0.0 0.01 0.53 0.53 93 1016.8
20260904231847 77 67 0.0 0.0 0.01 0.53 0.53 93 1016.7
20260904231352 77 67 0.0 0.0 0.01 0.53 0.53 93 1016.8
20260904230831 77 67 0.0 0.0 0.01 0.53 0.53 92 1016.9
20260904230331 77 67 0.0 0.0 0.01 0.53 0.53 93 1017.0
20260904225825 77 72 0.0 0.0 0.01 0.53 0.53 92 1017.1
20260904225326 77 72 0.0 1.0 0.01 0.53 0.53 92 1017.1
20260904224826 77 72 0.0 1.0 0.00 0.52 0.52 92 1017.0
20260904224326 77 72 0.0 2.0 0.00 0.52 0.52 92 1016.9
20260904223825 77 72 1.0 2.0 0.00 0.52 0.52 92 1016.8
20260904223327 78 69 0.0 2.0 0.00 0.52 0.52 92 1016.8
20260904222825 78 69 0.0 1.0 0.00 0.52 0.52 92 1016.8
20260904222354 78 69 0.0 1.0 0.00 0.52 0.52 92 1016.7
20260904221903 78 69 0.0 1.0 0.00 0.52 0.52 92 1016.7
20260904221323 78 69 0.0 1.0 0.00 0.52 0.52 92 1016.6
20260904220826 78 69 0.0 1.0 0.00 0.52 0.52 92 1016.2
20260904220331 78 69 0.0 4.0 0.00 0.52 0.52 92 1015.9
20260904215857 78 76 2.0 4.0 0.00 0.52 0.52 92 1015.5
20260904215339 78 241 0.0 1.0 0.00 0.52 0.52 91 1015.1
20260904214823 77 241 0.0 1.0 0.00 0.52 0.52 91 1015.0
20260904214327 77 241 0.0 1.0 0.01 0.52 0.52 91 1015.2
20260904213829 77 241 0.0 2.0 0.06 0.52 0.52 91 1015.1
20260904213335 77 271 0.0 2.0 0.22 0.52 0.52 91 1015.0
20260904212833 78 271 1.0 3.0 0.33 0.52 0.52 90 1015.1
20260904212336 78 279 1.0 3.0 0.45 0.52 0.52 90 1015.3
20260904211840 78 266 1.0 3.0 0.52 0.52 0.52 90 1015.6
20260904211324 78 283 0.0 2.0 0.52 0.52 0.52 90 1015.9
20260904210828 78 297 0.0 1.0 0.52 0.52 0.52 89 1015.7
20260904210333 78 336 0.0 1.0 0.52 0.52 0.52 89 1015.7
20260904205833 78 336 0.0 1.0 0.52 0.52 0.52 88 1015.8
20260904205336 78 336 0.0 1.0 0.52 0.52 0.52 87 1016.0
20260904204836 79 349 0.0 4.0 0.52 0.52 0.52 86 1016.2
20260904204340 79 360 0.0 7.0 0.51 0.51 0.51 84 1016.3
20260904203843 80 258 1.0 7.0 0.46 0.46 0.46 83 1016.8
20260904203351 81 261 2.0 18.0 0.30 0.30 0.30 81 1016.8
20260904202849 84 264 4.0 18.0 0.19 0.19 0.19 76 1016.7
20260904202350 88 263 7.0 16.0 0.07 0.07 0.07 72 1016.1
20260904201850 92 278 4.0 10.0 0.00 0.00 0.00 69 1015.6
20260904201349 93 174 2.0 5.0 0.00 0.00 0.00 65 1015.1
20260904200859 93 122 2.0 8.0 0.00 0.00 0.00 63 1015.1
20260904200344 94 146 3.0 8.0 0.00 0.00 0.00 63 1015.1
20260904195845 94 86 3.0 5.0 0.00 0.00 0.00 64 1015.0
20260904195344 93 81 2.0 5.0 0.00 0.00 0.00 67 1015.0
20260904194847 92 136 2.0 5.0 0.00 0.00 0.00 66 1015.1
20260904194358 92 100 2.0 10.0 0.00 0.00 0.00 67 1015.2
20260904193840 93 66 3.0 10.0 0.00 0.00 0.00 67 1015.2
20260904193344 93 75 3.0 8.0 0.00 0.00 0.00 67 1015.3
20260904192846 93 146 2.0 8.0 0.00 0.00 0.00 66 1015.4
20260904192349 94 138 3.0 7.0 0.00 0.00 0.00 63 1015.4
20260904191831 94 128 2.0 8.0 0.00 0.00 0.00 64 1015.5
20260904191402 94 136 3.0 8.0 0.00 0.00 0.00 63 1015.5
20260904190911 94 133 2.0 7.0 0.00 0.00 0.00 62 1015.5
20260904190347 95 154 4.0 7.0 0.00 0.00 0.00 60 1015.8
20260904185846 95 183 1.0 5.0 0.00 0.00 0.00 62 1015.8
20260904185347 94 124 2.0 5.0 0.00 0.00 0.00 63 1015.9
20260904184849 95 195 2.0 6.0 0.00 0.00 0.00 63 1016.0
20260904184350 95 117 0.0 6.0 0.00 0.00 0.00 62 1015.9
20260904183829 95 261 2.0 7.0 0.00 0.00 0.00 61 1016.1
20260904183330 96 190 1.0 7.0 0.00 0.00 0.00 63 1016.3
20260904182830 95 254 1.0 3.0 0.00 0.00 0.00 65 1016.4
20260904182401 95 206 2.0 3.0 0.00 0.00 0.00 63 1016.5
20260904181841 95 184 1.0 3.0 0.00 0.00 0.00 64 1016.6
20260904181341 94 157 1.0 3.0 0.00 0.00 0.00 65 1016.5